K7EK Weather Reports


time (UTC)temp
C
wind
direction
speed
KPH
gust
KPH
rain 1hr
cm
rain 24hr
cm
rain mn
cm
humidity
%
barometer
mb
20260906103054 21 0 0.0 0.0 0.00 0.00 0.00 98 1012.6
20260906101554 21 0 0.0 0.0 0.00 0.00 0.00 98 1012.7
20260906100051 21 0 0.0 0.0 0.00 0.00 0.00 97 1012.4
20260906094603 21 0 0.0 0.0 0.00 0.00 0.00 97 1012.4
20260906093054 21 0 0.0 0.0 0.00 0.00 0.00 96 1012.4
20260906091556 21 0 0.0 1.6 0.00 0.00 0.00 96 1012.3
20260906084558 21 0 0.0 0.0 0.00 0.00 0.00 96 1012.2
20260906083104 21 0 0.0 0.0 0.00 0.00 0.00 96 1012.1
20260906081558 21 0 0.0 0.0 0.00 0.00 0.00 95 1012.1
20260906080110 21 0 0.0 0.0 0.00 0.00 0.00 95 1012.1
20260906074607 21 0 0.0 0.0 0.00 0.00 0.00 95 1012.0
20260906073055 21 0 0.0 0.0 0.00 0.00 0.00 94 1012.1
20260906071608 22 0 0.0 0.0 0.00 0.00 0.00 94 1012.4
20260906070100 22 0 0.0 0.0 0.00 0.00 0.00 94 1012.5
20260906064553 22 0 0.0 0.0 0.00 0.00 0.00 93 1012.5
20260906063057 22 0 0.0 0.0 0.00 0.00 0.00 93 1012.4
20260906061558 22 0 0.0 0.0 0.00 0.00 0.00 93 1012.3
20260906060051 22 0 0.0 0.0 0.00 0.00 0.00 92 1012.4
20260906054557 22 0 0.0 3.2 0.00 0.00 0.00 91 1012.2
20260906053053 22 0 0.0 4.8 0.00 0.00 0.00 91 1012.2
20260906051603 23 0 0.0 3.2 0.00 0.00 0.00 89 1012.3
20260906050057 23 186 0.0 3.2 0.00 0.00 0.00 88 1012.5
20260906044552 23 0 1.6 6.4 0.00 0.00 0.00 86 1012.7
20260906043059 23 0 0.0 1.6 0.00 0.00 0.00 85 1012.3
20260906041556 23 184 0.0 1.6 0.00 0.00 0.00 86 1012.3
20260906040101 24 0 0.0 0.0 0.00 0.00 0.00 85 1012.4
20260906034553 24 0 0.0 0.0 0.00 0.00 0.00 85 1012.5
20260906033104 24 0 0.0 3.2 0.00 0.00 0.00 85 1012.3
20260906031554 24 0 0.0 1.6 0.00 0.00 0.00 85 1012.2
20260906030116 24 0 0.0 0.0 0.00 0.00 0.00 85 1012.4
20260906024625 24 0 0.0 0.0 0.00 0.00 0.00 85 1012.6
20260906023053 25 0 0.0 0.0 0.00 0.00 0.00 84 1012.4
20260906021606 25 0 0.0 6.4 0.00 0.00 0.00 83 1012.5
20260906020059 27 183 1.6 11.3 0.00 0.00 0.00 77 1012.5
20260906014602 28 223 4.8 19.3 0.00 0.00 0.00 72 1012.3
20260906013055 28 181 1.6 4.8 0.00 0.00 0.00 76 1011.3
20260906011553 29 0 0.0 0.0 0.00 0.00 0.00 76 1010.9
20260906010113 29 0 0.0 0.0 0.00 0.00 0.00 76 1010.8
20260906004600 30 151 0.0 1.6 0.00 0.00 0.00 72 1010.8
20260906003112 30 0 0.0 0.0 0.00 0.00 0.00 70 1010.9
20260906001554 31 0 0.0 1.6 0.00 0.00 0.00 69 1011.0
20260906000104 31 0 0.0 0.0 0.00 0.00 0.00 67 1011.5
20260905234606 32 0 0.0 1.6 0.00 0.00 0.00 64 1011.7
20260905233053 32 0 0.0 1.6 0.00 0.00 0.00 62 1011.6
20260905231555 33 133 0.0 3.2 0.00 0.00 0.00 59 1011.6
20260905230100 33 133 0.0 3.2 0.00 0.00 0.00 58 1011.1
20260905224556 33 0 0.0 6.4 0.00 0.00 0.00 57 1011.1
20260905223055 34 133 0.0 3.2 0.00 0.00 0.00 56 1011.1
20260905221554 34 132 3.2 16.1 0.00 0.00 0.00 55 1011.2
20260905220100 34 134 0.0 4.8 0.00 0.00 0.00 56 1011.2
20260905214556 35 141 3.2 11.3 0.00 0.00 0.00 53 1011.4
20260905213105 35 184 3.2 9.7 0.00 0.00 0.00 53 1011.3
20260905211556 35 134 3.2 8.0 0.00 0.00 0.00 53 1011.3
20260905204603 35 138 1.6 17.7 0.00 0.00 0.00 53 1011.6
20260905203057 35 0 1.6 9.7 0.00 0.00 0.00 52 1011.7
20260905201556 35 165 1.6 11.3 0.00 0.00 0.00 54 1012.0
20260905200100 34 151 0.0 12.9 0.00 0.00 0.00 56 1012.0
20260905194557 35 250 3.2 11.3 0.00 0.00 0.00 55 1012.3
20260905193106 35 153 0.0 6.4 0.00 0.00 0.00 56 1012.5
20260905191603 34 220 0.0 9.7 0.00 0.00 0.00 58 1012.5
20260905184609 35 0 1.6 4.8 0.00 0.00 0.00 58 1013.0
20260905183056 33 161 0.0 11.3 0.00 0.00 0.00 59 1013.1
20260905181601 34 168 0.0 6.4 0.00 0.00 0.00 56 1013.2
20260905180107 33 160 0.0 8.0 0.00 0.00 0.00 58 1013.6
20260905174556 33 178 1.6 6.4 0.00 0.00 0.00 59 1013.7
20260905173057 32 0 1.6 6.4 0.00 0.00 0.00 59 1013.9
20260905171552 32 167 0.0 6.4 0.00 0.00 0.00 61 1014.0
20260905170057 32 0 1.6 6.4 0.00 0.00 0.00 64 1014.4
20260905164556 32 165 0.0 4.8 0.00 0.00 0.00 63 1014.4
20260905163102 31 142 0.0 6.4 0.00 0.00 0.00 64 1014.8
20260905161600 30 163 1.6 9.7 0.00 0.00 0.00 66 1014.6
20260905160059 30 157 1.6 8.0 0.00 0.00 0.00 68 1014.8
20260905154605 30 143 3.2 9.7 0.00 0.00 0.00 72 1014.8
20260905153052 28 158 3.2 9.7 0.00 0.00 0.00 74 1015.0
20260905151602 28 155 1.6 8.0 0.00 0.00 0.00 74 1015.0
20260905150100 28 143 1.6 14.5 0.00 0.00 0.00 76 1014.9
20260905144602 27 154 1.6 12.9 0.00 0.00 0.00 77 1015.0
20260905143108 28 119 1.6 12.9 0.00 0.00 0.00 77 1015.0
20260905141603 28 0 0.0 12.9 0.00 0.00 0.00 78 1015.3
20260905140058 27 153 1.6 12.9 0.00 0.00 0.00 80 1015.2
20260905134557 27 153 1.6 11.3 0.00 0.00 0.00 83 1015.2
20260905133059 27 155 0.0 3.2 0.00 0.00 0.00 82 1015.0
20260905131600 26 153 1.6 3.2 0.00 0.00 0.00 88 1015.0
20260905130057 25 160 0.0 3.2 0.00 0.00 0.00 88 1015.1
20260905124601 25 151 0.0 3.2 0.00 0.00 0.00 89 1015.2
20260905123110 25 149 0.0 6.4 0.00 0.00 0.00 91 1015.1
20260905121555 24 0 0.0 0.0 0.00 0.00 0.00 95 1014.4
20260905120107 23 0 0.0 0.0 0.00 0.00 0.00 95 1014.3
20260905114558 23 0 0.0 0.0 0.00 0.00 0.00 95 1014.2
20260905113053 23 0 0.0 0.0 0.00 0.00 0.00 94 1014.1
20260905111630 23 0 0.0 0.0 0.00 0.00 0.00 93 1013.9
20260905110100 23 0 0.0 0.0 0.00 0.00 0.00 94 1013.5
20260905104558 23 0 0.0 0.0 0.00 0.00 0.00 93 1013.5